GFSCGP_prec_cloud_336.txt.gz
Cloud_Cover
100 100 100 100 79 100 100 100 100 100 44 100 99 65 68 58 82 100 100 98 100 82 97 84 79 55 100 89 8 5 5 85 74 14 8 2 5 8 6 3 0 3 42 45
100 100 100 18 100 100 100 100 58 95 100 100 99 26 69 11 11 43 100 98 69 96 99 100 100 100 100 100 98 1 0 10 14 0 1 0 5 5 31 58 55 98 98 100
100 96 100 98 87 100 100 100 99 100 81 4 47 98 94 10 94 100 94 32 44 98 97 100 100 100 97 3 0 0 0 0 2 0 0 1 35 1 3 5 0 3 2 41
100 93 92 91 100 91 100 100 100 100 80 8 40 100 97 97 99 100 38 99 51 98 100 100 100 61 23 0 0 0 0 1 0 0 2 0 4 1 2 4 5 25 54 76
100 99 99 100 100 100 100 100 100 100 100 100 100 85 100 34 85 72 19 5 19 84 86 100 8 3 0 0 0 0 0 0 0 2 1 0 1 25 4 2 0 5 5 56
89 100 100 100 100 100 100 100 100 100 100 100 100 94 100 100 94 11 28 5 36 6 33 5 2 1 6 8 0 0 0 0 0 0 0 1 0 17 27 6 12 58 25 91
92 98 100 100 100 90 37 100 86 100 100 100 66 65 100 97 9 12 5 25 28 3 5 5 6 66 70 5 4 0 0 0 0 0 0 0 0 0 7 0 4 33 72 99
100 100 100 100 100 100 89 99 54 100 100 100 100 100 100 30 6 6 5 5 5 5 13 28 5 41 9 12 5 0 4 5 1 0 0 0 0 18 6 10 9 10 97 100
100 100 100 99 100 100 100 100 100 100 100 95 39 68 100 5 16 37 5 5 5 7 48 31 6 33 58 10 4 5 5 5 1 0 0 0 0 2 5 1 10 20 35 99
24 96 16 98 100 100 100 100 100 100 94 100 100 100 57 10 5 4 5 5 17 71 76 4 39 34 5 18 5 8 5 5 3 0 5 4 2 5 2 4 0 2 5 57
100 65 72 37 100 100 100 100 100 100 100 100 100 89 56 6 4 5 5 35 94 100 100 4 5 6 100 100 10 5 5 5 4 5 5 7 5 5 5 0 5 12 84 100
100 98 99 59 12 100 100 100 100 100 100 100 77 67 9 5 5 5 86 100 100 100 3 5 100 100 100 100 34 23 100 86 5 6 68 96 74 5 18 5 5 69 100 60
100 100 100 100 65 100 100 100 100 100 100 100 98 84 25 5 5 5 54 100 74 5 39 100 100 100 100 100 99 98 100 100 34 14 55 99 7 8 5 5 18 78 96 100
100 84 100 100 100 100 100 100 100 100 100 100 100 40 5 5 5 13 81 100 82 76 67 13 25 87 100 100 100 100 100 100 91 96 5 5 5 36 5 5 43 96 100 100
96 100 100 100 100 100 100 100 100 100 70 22 7 75 100 92 100 100 100 84 52 33 30 5 8 99 100 100 100 100 100 100 46 3 5 5 44 45 32 4 50 85 100 100
100 100 100 100 100 100 100 100 94 98 100 49 100 93 100 99 100 100 100 86 31 83 91 100 100 100 100 100 100 100 100 100 7 5 5 12 66 5 25 0 5 56 100 100
100 100 100 100 100 100 100 100 100 100 100 100 100 100 100 100 100 100 62 100 100 100 100 100 100 100 100 100 100 100 100 51 0 1 5 14 81 9 5 0 2 5 94 100
100 100 100 100 100 100 100 100 100 100 100 100 100 100 100 100 100 67 6 5 31 84 96 100 100 100 100 100 100 100 100 5 0 5 5 5 40 11 5 4 12 89 100 100
100 100 100 100 100 100 100 100 100 100 100 100 100 100 100 100 20 5 4 0 4 71 94 100 100 100 100 100 100 100 90 0 0 5 5 64 35 5 17 5 5 8 36 100
100 100 100 100 100 100 100 100 100 61 100 100 100 100 99 6 2 0 0 0 32 100 69 100 100 100 100 100 100 100 4 0 2 5 5 16 37 7 5 6 7 25 19 100
100 100 100 100 100 100 100 100 100 100 100 100 100 46 5 0 0 0 0 0 99 98 97 100 100 100 100 100 100 100 2 1 4 5 5 53 94 72 5 4 34 100 67 100
100 95 100 100 100 100 100 100 100 100 100 58 5 0 0 0 0 0 1 17 98 100 100 93 100 100 100 100 100 28 5 0 5 5 5 84 65 2 6 5 4 100 90 100
83 53 98 100 100 100 100 100 100 66 5 5 0 0 0 0 0 0 0 100 19 16 100 100 100 100 100 100 100 5 5 5 5 5 5 41 6 3 5 48 5 5 64 100
99 100 100 100 100 100 100 100 80 38 1 0 0 0 0 0 0 0 0 5 5 79 100 100 100 100 100 100 87 5 5 6 7 5 30 37 9 5 5 76 89 7 82 100
100 100 100 100 100 100 95 30 0 5 1 2 0 2 0 2 1 0 0 5 75 100 100 100 100 100 100 5 15 5 21 29 6 10 5 5 93 56 5 71 92 92 97 100
100 100 64 64 55 8 4 3 0 0 5 5 5 1 3 0 0 0 0 39 100 100 100 100 100 100 93 5 5 5 6 15 48 76 9 35 62 98 99 29 100 76 100 100

GFSCGP_prec_cloud_339.txt.gz
Cloud_Cover
61 42 98 96 100 100 100 100 41 99 65 13 93 100 100 100 100 100 92 96 100 62 15 33 5 6 87 91 17 8 54 21 70 100 26 0 0 8 69 4 2 5 5 0
14 58 100 100 100 100 95 97 100 93 100 100 100 100 100 100 100 100 100 80 33 85 100 99 58 79 100 100 99 100 100 64 3 21 2 0 0 0 5 23 11 5 5 1
82 100 100 100 100 39 98 86 99 97 100 100 76 100 100 100 100 100 95 93 21 85 83 100 100 100 100 98 100 100 92 0 0 8 9 1 2 4 4 71 98 2 5 12
100 100 100 100 100 79 92 100 100 100 100 98 97 90 100 100 100 74 15 65 5 82 98 73 10 4 100 85 23 2 0 0 4 3 16 7 10 5 1 100 59 8 2 41
98 100 100 100 100 99 99 100 100 100 42 21 5 28 100 100 100 60 5 5 47 69 77 79 5 5 5 5 5 2 0 5 5 5 13 33 34 22 8 19 4 4 38 83
100 100 85 100 100 100 100 100 100 100 100 26 5 71 100 98 44 18 5 94 74 60 35 4 0 5 7 16 83 7 0 5 5 5 5 4 14 4 6 3 21 10 6 39
89 100 100 100 100 100 99 100 100 100 100 28 22 100 100 78 100 99 100 100 52 57 5 4 5 5 12 92 22 0 4 1 5 5 5 5 2 5 0 2 17 12 14 6
100 100 100 100 94 100 99 100 99 78 100 100 100 100 100 100 91 97 100 100 24 22 5 5 5 9 88 15 4 1 2 5 23 24 5 8 95 5 7 8 5 12 25 16
100 100 100 82 94 92 99 100 100 82 99 100 100 100 100 30 43 100 100 87 100 78 5 26 38 77 5 5 5 0 0 5 75 11 5 38 100 40 7 3 5 18 11 7
100 100 100 100 100 91 98 90 99 100 96 100 66 100 100 100 100 100 96 91 89 18 8 70 96 77 5 4 4 5 3 12 100 85 66 42 100 7 56 5 5 5 1 1
100 100 100 100 100 84 75 100 86 100 100 100 13 100 100 98 100 39 73 40 100 100 78 14 65 5 5 10 16 5 50 90 100 90 100 100 100 26 5 5 5 5 5 1
100 100 100 100 100 100 100 100 84 100 100 75 94 100 100 55 10 6 37 100 100 100 30 3 0 5 5 100 100 100 100 100 100 100 100 100 100 43 5 5 5 17 4 8
100 100 100 100 100 96 100 100 100 100 100 100 100 100 67 86 67 5 76 86 91 83 5 5 5 5 71 6 28 63 86 100 100 100 100 100 100 2 5 5 5 5 2 50
100 96 99 88 98 73 100 100 96 100 100 100 100 100 88 39 18 10 40 100 100 87 19 55 4 3 5 35 67 29 100 91 100 100 100 100 100 3 22 5 59 5 2 29
99 100 100 84 100 86 100 100 100 100 94 94 85 100 100 63 100 100 100 100 98 57 88 91 33 1 100 100 100 29 100 100 100 100 100 100 22 5 5 33 93 6 10 21
100 100 59 36 96 100 100 86 98 81 100 99 97 99 100 100 100 100 100 100 28 100 100 96 0 5 100 100 100 100 100 100 100 100 100 91 0 5 5 88 92 50 1 7
89 77 98 91 95 92 12 98 82 100 93 92 100 100 100 100 100 100 100 78 100 100 75 5 5 91 100 100 100 100 100 100 100 100 99 0 5 5 8 100 100 47 6 10
84 99 100 100 100 100 97 100 100 100 100 100 100 100 100 100 100 100 100 100 75 14 5 18 99 96 100 100 100 100 100 100 100 100 2 2 5 5 79 100 98 4 11 15
79 100 100 93 100 33 100 100 100 100 100 100 100 100 100 100 100 24 24 2 0 5 69 57 100 83 100 95 100 100 100 100 100 5 4 9 6 95 100 100 36 5 10 39
65 96 100 93 64 99 100 99 100 100 100 100 100 100 100 62 88 1 0 0 1 5 11 100 93 80 100 100 100 100 100 100 46 5 61 10 89 100 100 99 3 13 89 53
37 68 95 100 100 100 100 100 100 100 100 100 84 20 0 0 0 0 0 1 0 0 4 9 51 100 100 100 100 100 100 91 10 97 57 5 100 100 97 5 4 5 99 100
97 100 100 100 100 100 100 100 100 100 92 5 0 0 0 0 4 5 1 2 2 0 5 10 100 100 100 100 100 100 98 5 88 99 57 5 45 86 4 4 5 5 39 100
98 10 65 100 100 100 100 100 100 9 5 2 4 0 3 5 5 7 5 2 0 0 0 5 77 87 100 100 100 97 90 90 100 16 5 5 5 5 5 5 8 32 29 100
49 62 100 100 100 100 100 100 100 88 12 2 4 5 5 5 53 97 12 0 0 3 3 5 10 90 89 100 86 100 96 69 100 100 39 8 22 100 13 5 98 100 90 95
20 100 100 100 100 91 45 85 100 100 6 5 12 37 5 64 37 1 0 0 4 9 5 10 23 81 100 100 22 96 72 95 100 100 100 14 92 100 95 77 99 100 92 100
100 74 32 48 15 6 18 86 100 4 17 16 19 4 3 5 5 0 0 0 0 3 5 53 100 83 69 18 6 30 100 90 100 96 76 5 40 100 100 71 98 98 100 100

GFSCGP_prec_cloud_342.txt.gz
Cloud_Cover
83 100 73 77 100 91 100 100 100 99 50 31 28 94 100 82 95 98 100 75 18 93 48 5 5 5 53 66 78 1 5 4 4 68 33 0 0 1 5 5 23 2 4 4
89 97 56 79 100 100 100 100 100 75 8 55 100 98 100 100 100 100 100 100 100 100 89 5 5 71 69 3 5 0 0 0 0 0 0 0 0 1 0 0 5 5 25 69
100 100 58 91 100 100 100 100 100 100 17 37 88 100 100 100 100 100 100 100 100 87 5 20 5 5 2 5 5 1 0 0 0 3 25 21 12 6 1 4 14 64 95 99
100 99 100 47 100 100 100 100 98 98 100 100 100 100 100 100 100 100 100 94 44 16 47 83 5 5 79 6 5 5 5 4 2 9 25 21 17 27 28 30 64 14 60 100
100 100 100 81 100 100 100 100 100 100 100 100 52 96 100 58 26 26 100 65 5 5 63 100 98 5 34 9 30 5 5 0 0 5 5 17 58 100 100 79 5 1 5 4
100 91 100 98 100 100 100 66 100 100 48 9 6 24 100 85 57 98 99 11 81 86 100 90 71 5 11 98 60 50 5 5 17 94 14 5 5 28 99 28 3 5 62 5
100 94 100 100 100 100 100 100 100 98 100 60 22 22 100 100 74 54 54 100 100 90 89 100 58 22 82 98 100 100 24 27 71 10 3 15 76 95 100 100 100 94 100 10
100 100 100 100 100 100 100 100 100 28 48 78 100 99 100 78 94 100 100 100 100 100 100 100 48 39 80 100 100 70 19 68 21 2 12 34 73 100 100 100 100 79 99 4
100 100 100 99 92 89 100 100 100 18 10 18 86 100 100 77 98 100 100 100 100 100 100 66 17 99 100 74 93 15 53 9 0 0 5 5 63 85 100 100 72 79 44 2
100 99 91 100 100 100 100 100 100 100 93 100 88 88 100 78 100 100 100 100 100 77 18 100 100 100 79 94 69 48 2 0 0 2 5 69 48 60 36 100 74 100 5 5
100 100 100 100 100 100 100 100 100 100 100 50 27 100 27 100 100 100 100 100 75 29 45 82 98 99 71 16 4 0 0 1 4 12 25 98 100 100 100 90 100 82 5 6
100 100 100 100 98 100 100 100 100 100 97 100 33 85 98 99 100 100 98 85 100 100 98 100 100 100 76 45 0 0 5 5 5 65 100 100 100 100 100 100 100 5 5 55
98 100 100 100 100 100 100 100 100 100 97 100 100 100 100 100 100 100 100 100 100 99 100 100 100 29 100 10 2 5 6 10 5 54 95 100 100 100 100 100 29 5 26 69
56 90 99 100 100 100 100 100 100 100 94 100 100 100 100 100 100 100 100 100 100 100 100 99 47 97 70 5 5 5 7 5 98 13 92 100 100 100 100 92 30 10 54 65
100 83 29 5 5 57 96 100 100 100 100 100 100 100 100 95 53 73 66 85 100 100 56 28 100 69 5 5 5 46 16 93 32 100 100 100 100 100 74 5 48 5 91 82
100 100 64 99 5 6 81 68 100 100 61 79 100 100 66 6 30 71 100 100 92 89 100 98 5 48 82 5 40 10 18 50 100 100 100 100 100 42 5 5 5 70 100 98
85 6 5 29 59 76 91 82 6 22 50 86 88 92 99 100 100 100 75 99 97 97 5 19 84 29 5 85 23 38 85 97 100 100 100 96 89 46 5 18 78 100 100 100
94 25 71 84 29 93 37 32 19 100 63 62 98 100 100 100 78 76 82 38 6 1 12 48 4 1 6 24 75 98 98 100 100 100 92 97 91 56 48 91 100 100 100 76
84 100 80 86 82 65 70 10 100 100 96 100 100 100 78 14 5 0 0 0 0 0 0 0 0 1 21 52 100 99 97 100 100 26 18 90 74 33 14 95 100 100 94 57
59 100 100 100 100 71 100 100 100 100 100 100 100 36 5 5 0 4 3 0 0 0 0 0 0 5 64 69 100 100 100 99 47 43 71 6 32 55 98 100 100 54 5 100
95 100 100 100 81 49 98 100 100 100 86 64 6 5 3 0 5 1 1 3 4 0 0 0 0 5 100 98 74 42 27 5 5 8 29 17 50 9 47 25 5 5 5 82
100 100 100 100 100 100 98 96 56 12 5 4 5 0 1 5 3 5 5 5 3 0 0 0 0 16 38 6 5 3 4 5 58 100 100 100 50 80 100 48 86 69 38 84
100 100 100 100 100 100 55 5 5 5 5 1 0 5 5 5 5 3 5 2 0 0 0 0 0 1 5 19 7 5 5 27 100 100 100 100 93 83 100 80 74 44 100 72
100 100 100 100 66 5 5 2 2 5 0 1 5 5 5 5 5 3 0 0 0 0 0 0 0 5 9 65 15 16 6 100 100 28 99 100 5 79 100 98 100 99 99 100
100 100 98 14 5 5 4 5 5 1 3 5 5 5 5 5 5 5 4 0 0 1 1 0 0 4 5 5 5 5 5 18 96 12 42 30 34 99 100 100 100 86 86 100
47 17 6 5 5 5 4 1 0 5 5 5 5 5 5 5 5 5 5 3 0 4 15 0 4 5 5 4 4 4 5 8 5 1 5 5 98 100 100 47 84 100 95 100

GFSCGP_prec_cloud_345.txt.gz
Cloud_Cover
93 94 100 83 100 48 46 6 89 100 100 100 100 100 85 59 39 5 5 5 5 3 5 4 84 100 86 5 5 5 2 0 0 0 1 4 0 0 0 0 0 0 0 20
100 100 100 100 98 54 64 87 100 100 100 100 100 100 100 100 97 85 21 5 5 5 6 89 100 99 5 10 5 4 4 4 4 4 5 0 0 0 0 0 0 0 0 4
100 100 100 100 100 98 100 100 100 100 100 100 90 99 100 72 46 30 21 5 24 28 98 100 47 52 54 50 21 88 92 5 5 5 5 5 8 0 0 0 0 1 9 85
83 94 100 100 100 100 100 100 100 100 98 100 68 87 100 31 5 11 23 20 66 74 85 60 84 100 100 75 100 100 93 5 5 5 5 5 5 3 3 0 4 5 27 100
99 100 100 100 100 100 96 99 100 100 100 100 38 60 100 27 10 5 5 18 5 31 90 91 100 100 100 100 100 100 76 24 37 56 46 100 78 5 2 5 5 82 98 100
100 100 100 100 100 94 98 35 84 100 59 81 39 40 96 25 5 5 5 52 49 63 100 100 100 100 100 100 100 100 95 100 100 100 100 82 12 0 1 5 17 100 100 100
100 100 100 100 100 97 90 98 100 92 100 88 100 47 100 25 5 51 100 53 92 100 100 100 100 100 100 100 91 98 100 100 100 100 97 59 2 0 4 5 74 100 100 100
100 100 100 100 100 100 100 100 97 71 100 100 100 98 100 98 99 100 100 100 100 100 100 100 100 100 95 94 99 100 100 100 100 100 68 0 0 5 5 5 7 99 100 100
100 99 100 100 100 100 100 100 100 100 100 100 100 100 100 100 100 100 100 100 100 100 100 100 100 100 100 100 100 100 100 100 50 1 4 5 5 6 71 81 100 100 100 100
100 100 100 100 100 100 100 100 100 100 95 100 100 100 100 100 100 100 100 100 100 100 100 100 100 100 100 100 92 83 44 3 0 3 5 5 53 98 100 85 54 100 100 100
100 100 100 100 96 97 100 82 86 100 100 100 100 100 100 100 100 98 100 100 100 98 100 87 53 30 83 100 93 63 2 2 4 5 10 9 48 97 100 100 100 100 100 100
100 100 100 100 98 95 88 73 100 99 100 100 100 100 97 100 100 100 100 80 56 52 39 99 100 73 98 100 93 100 5 5 5 14 35 5 99 99 84 100 100 100 100 96
100 100 100 100 90 100 100 73 62 85 100 100 100 100 100 91 97 99 82 100 100 100 99 64 77 100 100 98 87 99 20 5 11 90 50 88 100 100 100 100 100 100 97 28
100 73 63 79 97 100 100 80 96 100 100 100 100 82 97 99 100 100 100 96 83 88 36 78 60 75 100 100 100 92 5 57 24 48 58 91 97 100 100 100 68 22 5 5
100 100 82 82 100 67 96 94 96 38 37 40 86 84 100 100 100 100 37 6 5 46 100 18 84 28 5 34 5 5 3 6 5 5 62 75 75 65 75 5 5 5 10 65
87 100 7 5 42 95 80 97 45 5 57 100 100 100 100 100 18 69 5 7 85 5 4 4 0 3 5 5 3 2 5 14 60 87 49 5 7 0 5 5 5 5 5 61
100 65 11 72 50 78 82 61 49 5 100 100 100 100 97 97 99 4 2 5 3 0 0 0 1 4 0 0 0 4 5 5 4 1 0 0 5 2 5 5 5 6 61 100
96 80 100 100 95 30 100 91 5 6 99 100 82 98 100 26 0 0 0 0 0 0 0 0 0 0 0 0 0 4 4 3 0 0 4 5 5 5 5 5 5 32 100 100
86 29 46 35 40 100 100 56 50 97 96 99 100 13 1 0 0 0 0 0 0 0 0 0 0 0 0 5 4 0 0 0 0 5 5 9 16 6 5 5 78 40 8 11
99 92 35 100 100 100 99 43 74 100 100 25 5 5 0 0 0 5 0 0 0 0 0 0 0 0 0 0 0 0 0 2 5 5 87 97 100 100 21 88 6 5 5 4
92 98 36 62 100 100 56 100 100 85 6 0 0 0 5 5 5 0 0 0 0 0 0 0 0 0 0 0 0 2 4 0 5 100 100 8 83 61 23 97 93 44 5 4
99 17 11 93 100 100 87 93 12 4 0 0 2 5 5 1 0 4 5 5 5 0 0 0 0 0 0 0 4 3 5 3 22 100 100 23 5 5 29 74 18 79 99 37
95 99 37 100 100 94 8 5 5 0 0 4 4 0 0 0 5 5 5 5 5 4 5 27 2 0 0 0 3 5 5 3 5 17 98 6 5 5 45 99 66 77 62 25
12 90 100 40 5 35 5 5 0 0 5 4 4 5 0 5 12 7 5 5 5 2 5 64 3 0 0 0 0 5 3 0 1 5 10 5 5 7 64 51 66 11 45 84
100 100 37 4 6 5 5 2 0 0 2 3 4 5 5 5 12 47 5 5 5 5 4 11 3 0 0 5 5 5 0 0 5 4 2 2 5 5 5 5 5 68 22 75
48 4 6 31 5 1 0 0 0 0 2 5 5 5 11 32 62 5 5 5 5 5 5 5 5 0 4 5 5 4 0 0 2 0 0 3 4 5 5 5 5 57 95 96